Location: Aufkirchen
(47.9603°N, 11.3653°E)
Time: 17:28:52
(UTC+01:00)

Transit 4A - Pass Details

Date: 03 December 2020
Orbit: 864 x 980 km, 66.8° (Epoch: 26 January)

Event Time Altitude Azimuth Distance (km) Brightness Sun altitude
Rises 11:19:06 0° 300° (WNW) 3,685 10.6 19.1°
Reaches altitude 10° 11:23:12 10° 325° (NW) 2,740 9.9 19.2°
Maximum altitude 11:26:25 14° 355° (N) 2,454 9.6 19.3°
Drops below altitude 10° 11:29:37 10° 26° (NNE) 2,732 9.9 19.4°
Sets 11:33:42 0° 51° (NE) 3,666 10.7 19.5°
